Lid_Strength_Index
1 1 1 2 2 3 4 5 6 7 7 7 6 8 8 8 8 8 8 7 7 6 7 7 6 6 6 6 5 4 5 5 6 5 4 3 4 4 4 4 4 5 4
1 2 2 3 4 4 5 5 6 7 6 7 8 8 7 8 8 8 7 6 7 7 6 7 7 6 6 5 5 5 5 4 5 6 4 5 5 4 4 5 5 5 4
3 4 4 5 4 5 6 6 6 6 7 7 7 7 7 7 7 6 6 6 6 6 6 6 5 5 5 5 5 5 5 5 4 6 6 5 5 4 5 5 5 4 4
6 5 6 6 5 6 7 7 7 6 6 5 6 7 6 7 6 6 6 6 6 6 5 4 4 4 4 4 5 5 5 5 5 6 6 5 5 5 5 7 6 5 5
7 7 7 6 7 7 7 8 7 7 6 7 6 7 7 7 7 7 6 6 6 6 4 5 4 4 5 4 5 4 4 5 5 6 6 5 6 6 7 6 7 6 5
6 8 8 8 8 9 9 8 7 7 6 6 7 7 7 7 8 8 8 7 6 5 5 4 4 5 5 5 5 5 5 5 6 6 6 6 6 6 6 7 7 7 8
7 8 9 9 9 8 7 7 6 7 6 7 7 7 7 6 9 9 9 6 5 4 4 4 4 5 5 4 5 5 4 5 6 4 5 5 6 5 6 7 6 6 7
9 9 8 8 8 7 7 7 7 7 7 7 7 6 7 7 9 8 8 5 5 5 4 4 4 3 3 4 4 4 4 3 4 5 4 4 4 5 6 5 6 6 5
8 8 8 7 7 7 8 8 7 7 7 7 8 8 8 7 8 8 7 5 5 5 5 4 4 3 4 5 4 5 5 4 5 5 5 5 6 6 5 5 6 7 7
8 7 7 7 8 8 8 8 8 8 9 9 9 8 9 7 7 7 7 5 6 6 5 4 5 4 5 5 4 5 5 4 5 5 5 5 5 5 6 5 5 7 7
8 9 9 10 10 9 9 9 9 9 9 10 10 9 8 7 6 7 7 6 6 6 5 5 3 5 5 5 5 4 4 3 5 5 5 5 6 5 5 5 5 6 7
10 10 10 10 10 10 10 10 10 10 10 10 10 9 8 7 7 7 7 7 6 6 5 3 2 4 5 4 4 4 4 5 4 5 5 6 6 6 5 4 4 5 5
11 11 11 11 12 12 12 12 12 12 12 12 12 11 10 9 8 8 8 8 7 6 4 4 4 5 4 5 4 4 4 5 5 5 5 6 5 4 4 5 5 5 5
12 13 13 13 13 13 13 13 13 13 13 13 12 12 11 10 9 8 8 8 7 5 5 4 5 5 4 3 4 4 3 3 4 5 5 5 4 5 5 5 6 6 6
13 14 14 14 14 14 14 14 14 13 13 13 12 12 11 11 10 10 9 8 6 6 6 5 5 5 5 4 4 4 3 3 5 5 5 5 6 6 6 5 6 6 7
15 15 16 15 15 15 15 15 14 13 13 12 12 12 11 12 11 10 9 7 6 6 6 6 5 4 5 4 5 5 4 4 4 4 5 5 6 6 6 6 6 7 7
16 16 16 16 15 16 16 16 16 13 13 12 12 13 13 12 11 10 9 8 6 6 6 6 5 4 4 4 4 5 5 4 4 5 5 5 5 6 6 6 6 7 7
16 17 16 16 16 16 16 16 16 15 15 14 13 14 14 13 12 11 10 10 10 10 7 6 4 4 3 3 4 4 4 4 4 5 5 5 5 5 6 7 7 7 7
17 17 17 17 17 18 17 17 16 15 16 16 15 14 14 14 12 12 12 12 13 12 12 11 9 6 5 4 3 3 3 4 4 5 5 5 5 6 6 6 6 8 9
17 18 18 18 18 18 17 17 17 16 17 17 16 16 15 15 15 14 13 13 13 13 13 12 11 9 8 4 3 3 3 4 4 5 5 5 5 6 6 7 7 7 8
18 18 20 19 19 18 18 18 18 17 17 17 16 16 18 17 16 15 14 14 14 14 14 13 12 10 9 8 7 3 3 4 4 5 5 5 6 6 6 6 6 7 7
19 20 20 20 19 19 20 19 18 18 18 17 17 16 18 16 16 15 15 15 15 14 13 13 13 11 11 10 9 8 5 4 4 5 5 5 6 6 6 6 7 7 7
20 21 21 20 20 21 20 20 19 18 19 18 18 18 18 17 17 17 16 16 15 15 14 14 13 12 11 11 10 9 8 7 4 4 5 5 6 6 6 7 7 8 8
21 21 21 21 21 21 21 20 20 20 20 19 19 19 19 18 18 17 17 16 16 16 15 15 14 13 11 11 11 10 8 8 8 3 4 5 5 6 6 6 7 7 8
21 21 21 21 21 21 21 21 21 21 21 21 20 20 19 19 18 18 17 17 17 17 17 16 14 13 12 12 12 11 10 10 9 6 3 4 5 6 6 6 7 7 8
20 21 20 20 20 21 21 22 22 22 22 22 21 20 20 20 19 18 18 18 18 18 18 16 15 14 13 12 11 11 12 11 9 9 3 4 5 5 6 6 7 7 9